Home   Weather   Unna   Past weeks
Flag for Germany

Past Weather in Unna, North Rhine-Westphalia, Germany — Yesterday and Last 2 Weeks

Now
54 °F

Overcast.


Feels Like: 52 °F
Forecast: 55 / 51 °F
Wind: 7 mph from Southwest

Location: Dortmund / Wickede

Current Time: Oct 20, 2019 at 1:22:04 am

Latest Report: Oct 20, 2019 at 12:50 am


Visibility: N/A

Pressure: 29.74 "Hg

Humidity: 88%

Dew Point: 50 °F

Location of UnnaLocation

Past Weather in Unna — Graph

°F

Unna Temperature Yesterday

Maximum temperature yesterday: 59 °F (at 1:50 pm)
Minimum temperature yesterday: 50 °F (at 2:20 am)
Average temperature yesterday: 54 °F

High & Low Weather Summary for the Past Weeks

 TemperatureHumidityPressure
High73 °F (Oct 13, 3:20 pm)100% (Oct 5, 12:20 am)30.09 "Hg (Oct 5, 12:20 am)
Low41 °F (Oct 7, 7:50 am)53% (Oct 14, 11:20 pm)29.65 "Hg (Oct 9, 4:20 pm)
Average56 °F81%29.83 "Hg
* Reported Oct 5 12:20 am — Oct 20 12:20 am, Unna. Weather by CustomWeather, © 2019

Note: Actual official high and low records may vary slightly from our data, if they occured in-between our weather recording intervals... More about our weather records

Advertising

Unna Weather History for the Previous 24 Hours

Scroll right to see more
 ConditionsComfort  
Time TempWeatherWind HumidityBarometerVisibility
12:20 am
Sun, Oct 20
54 °FMostly cloudy.8 mph94%29.74 "HgN/A
11:50 pm
Sat, Oct 19
54 °FPartly cloudy.7 mph94%29.74 "HgN/A
11:20 pm54 °FPartly cloudy.7 mph94%29.74 "HgN/A
10:20 pm54 °FPartly cloudy.7 mph94%29.71 "HgN/A
9:50 pm54 °FPassing clouds.6 mph94%29.71 "HgN/A
9:20 pm54 °FPassing clouds.7 mph94%29.71 "HgN/A
8:50 pm54 °FPassing clouds.2 mph94%29.71 "HgN/A
8:20 pm54 °FPassing clouds.3 mph94%29.71 "HgN/A
7:50 pm54 °FClear.6 mph94%29.71 "Hg10 mi
7:20 pm54 °FPassing clouds.6 mph94%29.68 "HgN/A
6:50 pm55 °FPassing clouds.7 mph88%29.68 "HgN/A
6:20 pm55 °FPassing clouds.7 mph94%29.68 "HgN/A
5:50 pm55 °FScattered showers. Scattered clouds.7 mph94%29.68 "HgN/A
5:20 pm55 °FPassing clouds.7 mph94%29.68 "Hg5 mi
4:50 pm55 °FPassing clouds.7 mph94%29.68 "HgN/A
4:20 pm57 °FScattered showers. Passing clouds.9 mph88%29.65 "HgN/A
3:50 pm57 °FLight rain. Passing clouds.10 mph88%29.68 "HgN/A
3:20 pm59 °FScattered showers. Broken clouds.14 mph77%29.65 "HgN/A
2:50 pm59 °FPartly sunny.16 mph72%29.65 "HgN/A
2:20 pm59 °FScattered showers. Broken clouds.14 mph77%29.65 "HgN/A
1:50 pm59 °FPassing clouds.15 mph77%29.68 "HgN/A
1:20 pm57 °FPassing clouds.15 mph77%29.68 "HgN/A
12:50 pm57 °FScattered showers. Passing clouds.15 mph82%29.68 "HgN/A
12:20 pm55 °FScattered showers. Broken clouds.12 mph88%29.68 "HgN/A
11:50 am55 °FScattered showers. Partly sunny.12 mph88%29.68 "HgN/A
11:20 am55 °FScattered showers. Partly sunny.12 mph88%29.68 "HgN/A
10:50 am55 °FPassing clouds.14 mph82%29.68 "HgN/A
10:20 am55 °FSunny.12 mph77%29.68 "Hg10 mi
9:50 am55 °FSunny.12 mph77%29.68 "Hg10 mi
9:20 am54 °FSunny.9 mph82%29.68 "Hg10 mi
8:50 am54 °FSunny.10 mph82%29.68 "Hg10 mi
8:20 am54 °FPassing clouds.12 mph77%29.68 "HgN/A
7:50 am54 °FPassing clouds.13 mph77%29.68 "HgN/A
7:20 am54 °FClear.13 mph77%29.71 "Hg10 mi
6:50 am54 °FClear.10 mph77%29.71 "Hg10 mi
6:20 am54 °FClear.10 mph72%29.71 "Hg10 mi
5:50 am54 °FClear.9 mph72%29.71 "Hg10 mi
5:20 am52 °FClear.10 mph77%29.74 "Hg10 mi
4:50 am52 °FPassing clouds.9 mph77%29.74 "HgN/A
4:20 am52 °FPassing clouds.8 mph77%29.74 "HgN/A
3:50 am52 °FPassing clouds.9 mph77%29.74 "HgN/A
3:20 am52 °FPassing clouds.12 mph77%29.74 "HgN/A
2:50 am52 °FPassing clouds.12 mph77%29.74 "HgN/A
2:20 am50 °FClear.13 mph82%29.77 "HgN/A
1:50 am52 °FPassing clouds.12 mph77%29.74 "HgN/A
1:20 am52 °FPassing clouds.12 mph77%29.77 "HgN/A
Weather by CustomWeather, © 2019

See weather overview